{"data":{"norad_id":44479,"epoch":"2026-05-25T03:49:24.301920Z","epoch_age_seconds":71937,"freshness":"FRESH","line1":"1 44479U 19050A   26145.15930905  .00000107  00000+0  00000+0 0  9999","line2":"2 44479   0.0147 330.4056 0001433  95.6052 251.0944  1.00270595 24955","mean_motion":1.00270595,"eccentricity":0.0001433,"inclination_deg":0.0147,"raan_deg":330.4056,"arg_perigee_deg":95.6052,"mean_anomaly_deg":251.0944,"bstar":0,"rev_number":2495,"period_min":1436.1139474639,"perigee_km":35780.886310793,"apogee_km":35792.970818584,"semimajor_km":42165.065564688,"source":"CELESTRAK","updated_at":"2026-05-25T13:38:14.088742Z"}}